Galileo — SX2040 — position and weather

sailwx.info

Track history (hours):
 
Tides and Currents Weather Stations Pressure Air Temp Water Temp Dewpoint Dewpoint Depression Visibility Wind Speed Wind Dir Waves Ship Positions

Galileo

Last reported at 2014-Oct-24 09:12 UTC. Time now 2014-Oct-24 13:37 UTC.
Position N 37°30' E 023°27'.

Length 40 m; draft 3 m.

Type: Passenger vessel. MMSI: 239299000.

Date/timePositionNaut miles runAvg speedWind from/ knotsBaromVisibWave heightAir tempDewpointWater temp
2014-Oct-24 09:12N 37°30' E 023°27'0 0.0
2014-Oct-24 00:34N 37°30' E 023°27'72 7.0
2014-Oct-23 14:21N 37°29' E 024°57'2 2.8
2014-Oct-23 13:32N 37°26' E 024°57'0 0.0
2014-Oct-23 12:32N 37°26' E 024°57'0 0.0
2014-Oct-23 11:12N 37°26' E 024°57'0 0.0
2014-Oct-23 10:17N 37°26' E 024°57'0 0.0
2014-Oct-23 09:10N 37°26' E 024°57'0 0.0
2014-Oct-23 08:06N 37°26' E 024°57'0 0.0
2014-Oct-23 07:21N 37°26' E 024°57'0 0.0
2014-Oct-23 06:27N 37°26' E 024°57'0 0.0
2014-Oct-23 05:33N 37°26' E 024°57'0 0.0
2014-Oct-23 04:23N 37°26' E 024°57'0 0.0
2014-Oct-23 03:30N 37°26' E 024°57'0 0.0
2014-Oct-23 02:17N 37°26' E 024°57'0 0.0
2014-Oct-23 01:30N 37°26' E 024°57'0 0.0
2014-Oct-23 00:32N 37°26' E 024°57'0 0.0
2014-Oct-22 23:26N 37°26' E 024°57'0 0.0
2014-Oct-22 22:32N 37°26' E 024°57'0 0.0
2014-Oct-22 21:23N 37°26' E 024°57'0 0.0
2014-Oct-22 20:09N 37°26' E 024°57'0 0.0
2014-Oct-22 19:29N 37°26' E 024°57'0 0.0
2014-Oct-22 18:22N 37°26' E 024°57'0 0.0
2014-Oct-22 17:31N 37°26' E 024°57'0 0.0
2014-Oct-22 16:33N 37°26' E 024°57'0 0.0
2014-Oct-22 15:24N 37°26' E 024°57'0 0.0
2014-Oct-22 14:32N 37°26' E 024°57'0 0.0
2014-Oct-22 13:29N 37°26' E 024°57'0 0.0
2014-Oct-22 12:29N 37°26' E 024°57'0 0.0
2014-Oct-22 11:29N 37°26' E 024°57'0 0.0
2014-Oct-22 10:31N 37°26' E 024°57'0 0.0
2014-Oct-22 09:31N 37°26' E 024°57'0 0.0
2014-Oct-22 08:29N 37°26' E 024°57'0 0.0
2014-Oct-22 07:31N 37°26' E 024°57'0 0.0
2014-Oct-22 06:28N 37°26' E 024°57'0 0.0
2014-Oct-22 05:22N 37°26' E 024°57'4 3.6
2014-Oct-22 04:07N 37°23' E 025°01'35 8.9
2014-Oct-22 00:12N 36°49' E 025°06'16 9.6
2014-Oct-21 22:31N 36°35' E 025°17'9 9.7
2014-Oct-21 21:33N 36°27' E 025°23'3 3.0
2014-Oct-21 20:32N 36°25' E 025°26'0 0.0
2014-Oct-21 19:32N 36°25' E 025°26'0 0.0
2014-Oct-21 18:32N 36°25' E 025°26'0 0.0
2014-Oct-21 17:33N 36°25' E 025°26'0 0.0
2014-Oct-21 16:32N 36°25' E 025°26'0 0.0
2014-Oct-21 15:33N 36°25' E 025°26'0 0.0
2014-Oct-21 14:33N 36°25' E 025°26'0 0.0
2014-Oct-21 13:32N 36°25' E 025°26'0 0.0
2014-Oct-21 12:33N 36°25' E 025°26'0 0.0
2014-Oct-21 11:33N 36°25' E 025°26'0 0.0
2014-Oct-21 10:32N 36°25' E 025°26'0 0.0
2014-Oct-21 09:32N 36°25' E 025°26'0 0.0
2014-Oct-21 08:32N 36°25' E 025°26'0 0.0
2014-Oct-21 07:32N 36°25' E 025°26'6 6.6
2014-Oct-21 06:33N 36°28' E 025°19'10 9.8
2014-Oct-21 05:33N 36°30' E 025°07'98 4.1
2014-Oct-20 05:19N 37°30' E 023°29'4 0.3
2014-Oct-19 13:25N 37°33' E 023°26'7 8.8
2014-Oct-19 12:33N 37°40' E 023°25'4 4.4
2014-Oct-19 11:33N 37°45' E 023°26'0 0.0
2014-Oct-19 10:34N 37°45' E 023°26'0 0.0
2014-Oct-19 09:34N 37°45' E 023°26'0 0.0
2014-Oct-19 08:33N 37°45' E 023°26'0 0.0
2014-Oct-19 07:33N 37°45' E 023°26'0 0.0
2014-Oct-19 06:33N 37°45' E 023°26'0 0.0
2014-Oct-19 05:34N 37°45' E 023°26'0 0.0
2014-Oct-19 04:33N 37°45' E 023°26'0 0.0
2014-Oct-19 03:33N 37°45' E 023°26'0 0.0
2014-Oct-19 02:34N 37°45' E 023°26'0 0.0
2014-Oct-19 01:34N 37°45' E 023°26'0 0.0
2014-Oct-19 00:34N 37°45' E 023°26'0 0.0
2014-Oct-18 23:34N 37°45' E 023°26'0 0.0
2014-Oct-18 22:34N 37°45' E 023°26'0 0.0
2014-Oct-18 21:34N 37°45' E 023°26'0 0.0
2014-Oct-18 20:33N 37°45' E 023°26'0 0.0
2014-Oct-18 19:34N 37°45' E 023°26'0 0.0
2014-Oct-18 18:33N 37°45' E 023°26'0 0.0
2014-Oct-18 17:33N 37°45' E 023°26'0 0.0
2014-Oct-18 16:33N 37°45' E 023°26'0 0.0
2014-Oct-18 15:33N 37°45' E 023°26'5 4.7
2014-Oct-18 14:34N 37°48' E 023°29'9 8.9
2014-Oct-18 13:34N 37°54' E 023°38'2 2.0
2014-Oct-18 12:34N 37°56' E 023°39'0 0.0
2014-Oct-18 11:34N 37°56' E 023°39'0 0.0
2014-Oct-18 10:33N 37°56' E 023°39'0 0.0
2014-Oct-18 09:33N 37°56' E 023°39'0 0.0
2014-Oct-18 08:34N 37°56' E 023°39'0 0.0
2014-Oct-18 07:34N 37°56' E 023°39'0 0.0
2014-Oct-18 06:33N 37°56' E 023°39'0 0.0
2014-Oct-18 05:34N 37°56' E 023°39'0 0.0
2014-Oct-18 04:34N 37°56' E 023°39'0 0.0
2014-Oct-18 03:34N 37°56' E 023°39'0 0.0
2014-Oct-18 02:34N 37°56' E 023°39'0 0.0
2014-Oct-18 01:34N 37°56' E 023°39'0 0.0
2014-Oct-18 00:33N 37°56' E 023°39'0 0.0
2014-Oct-17 23:34N 37°56' E 023°39'0 0.0
2014-Oct-17 22:34N 37°56' E 023°39'0 0.0
2014-Oct-17 21:34N 37°56' E 023°39'0 0.0
2014-Oct-17 20:34N 37°56' E 023°39'0 0.0
2014-Oct-17 19:34N 37°56' E 023°39'0 0.0
2014-Oct-17 18:34N 37°56' E 023°39'0 0.0
2014-Oct-17 17:34N 37°56' E 023°39'0 0.0
2014-Oct-17 16:34N 37°56' E 023°39'0 0.0
2014-Oct-17 15:33N 37°56' E 023°39'3 2.6
2014-Oct-17 14:33N 37°54' E 023°40'9 9.2
2014-Oct-17 13:33N 37°45' E 023°45'60 5.8
2014-Oct-17 03:11N 37°27' E 024°57'0 0.0
2014-Oct-17 01:30N 37°27' E 024°57'0 0.0
2014-Oct-17 00:30N 37°27' E 024°57'0 0.0
2014-Oct-16 23:30N 37°27' E 024°57'0 0.0
2014-Oct-16 22:28N 37°27' E 024°57'0 0.0
2014-Oct-16 21:18N 37°27' E 024°57'0 0.0
2014-Oct-16 20:29N 37°27' E 024°57'0 0.0
2014-Oct-16 19:29N 37°27' E 024°57'0 0.0
2014-Oct-16 18:29N 37°27' E 024°57'0 0.0
2014-Oct-16 17:33N 37°27' E 024°57'0 0.0
2014-Oct-16 16:33N 37°27' E 024°57'0 0.0
2014-Oct-16 15:29N 37°27' E 024°57'0 0.0
2014-Oct-16 14:30N 37°27' E 024°57'0 0.0
2014-Oct-16 13:21N 37°27' E 024°57'0 0.0
2014-Oct-16 12:28N 37°27' E 024°57'0 0.0
2014-Oct-16 11:24N 37°27' E 024°57'0 0.0
2014-Oct-16 10:28N 37°27' E 024°57'0 0.0
2014-Oct-16 09:23N 37°27' E 024°57'2 1.5
2014-Oct-16 08:14N 37°26' E 024°59'0 0.0
2014-Oct-16 07:29N 37°26' E 024°59'0 0.3
2014-Oct-16 06:30N 37°26' E 024°59'9 9.5
2014-Oct-16 05:33N 37°27' E 025°10'7 6.5
2014-Oct-16 04:24N 37°28' E 025°20'0 0.0
2014-Oct-16 03:33N 37°28' E 025°20'0 0.0
2014-Oct-16 02:20N 37°28' E 025°20'0 0.0
2014-Oct-16 01:25N 37°28' E 025°20'0 0.0
2014-Oct-16 00:33N 37°28' E 025°20'0 0.0
2014-Oct-15 23:29N 37°28' E 025°20'0 0.0
2014-Oct-15 22:27N 37°28' E 025°20'0 0.0
2014-Oct-15 21:16N 37°28' E 025°20'0 0.0
2014-Oct-15 20:31N 37°28' E 025°20'0 0.0
2014-Oct-15 19:32N 37°28' E 025°20'0 0.0
2014-Oct-15 18:31N 37°28' E 025°20'0 0.0
2014-Oct-15 17:33N 37°28' E 025°20'0 0.0
2014-Oct-15 16:33N 37°28' E 025°20'0 0.0
2014-Oct-15 15:24N 37°28' E 025°20'0 0.0
2014-Oct-15 14:28N 37°28' E 025°20'0 0.0
2014-Oct-15 13:31N 37°28' E 025°20'0 0.0
2014-Oct-15 12:32N 37°28' E 025°20'0 0.0
2014-Oct-15 11:32N 37°28' E 025°20'0 0.0
2014-Oct-15 10:26N 37°28' E 025°20'0 0.0
2014-Oct-15 09:31N 37°28' E 025°20'0 0.0
2014-Oct-15 08:31N 37°28' E 025°20'0 0.0
2014-Oct-15 07:31N 37°28' E 025°20'0 0.0
2014-Oct-15 06:19N 37°28' E 025°20'3 4.2
2014-Oct-15 05:33N 37°25' E 025°17'10 9.5
2014-Oct-15 04:29N 37°16' E 025°13'11 7.8
2014-Oct-15 03:05N 37°05' E 025°09'0 0.0
2014-Oct-15 02:29N 37°05' E 025°09'0 0.0
2014-Oct-14 21:13N 37°05' E 025°09'0 0.0
2014-Oct-14 19:20N 37°05' E 025°09'0 0.0
2014-Oct-14 18:33N 37°05' E 025°09'0 0.0
2014-Oct-14 15:23N 37°05' E 025°09'0 0.0
2014-Oct-14 13:23N 37°05' E 025°09'0 0.0
2014-Oct-14 12:31N 37°05' E 025°09'0 0.0
2014-Oct-14 11:19N 37°05' E 025°09'0 0.0
2014-Oct-14 10:21N 37°05' E 025°09'  
Track history (hours):
 
Tides and Currents Weather Stations Pressure Air Temp Water Temp Dewpoint Dewpoint Depression Visibility Wind Speed Wind Dir Waves Ship Positions

Galileo

Last reported at 2014-Oct-24 09:12 UTC. Time now 2014-Oct-24 13:37 UTC.
Position N 37°30' E 023°27'.

Length 40 m; draft 3 m.

Type: Passenger vessel. MMSI: 239299000.

Date/timePositionNaut miles runAvg speedWind from/ knotsBaromVisibWave heightAir tempDewpointWater temp
2014-Oct-24 09:12N 37°30' E 023°27'0 0.0
2014-Oct-24 00:34N 37°30' E 023°27'72 7.0
2014-Oct-23 14:21N 37°29' E 024°57'2 2.8
2014-Oct-23 13:32N 37°26' E 024°57'0 0.0
2014-Oct-23 12:32N 37°26' E 024°57'0 0.0
2014-Oct-23 11:12N 37°26' E 024°57'0 0.0
2014-Oct-23 10:17N 37°26' E 024°57'0 0.0
2014-Oct-23 09:10N 37°26' E 024°57'0 0.0
2014-Oct-23 08:06N 37°26' E 024°57'0 0.0
2014-Oct-23 07:21N 37°26' E 024°57'0 0.0
2014-Oct-23 06:27N 37°26' E 024°57'0 0.0
2014-Oct-23 05:33N 37°26' E 024°57'0 0.0
2014-Oct-23 04:23N 37°26' E 024°57'0 0.0
2014-Oct-23 03:30N 37°26' E 024°57'0 0.0
2014-Oct-23 02:17N 37°26' E 024°57'0 0.0
2014-Oct-23 01:30N 37°26' E 024°57'0 0.0
2014-Oct-23 00:32N 37°26' E 024°57'0 0.0
2014-Oct-22 23:26N 37°26' E 024°57'0 0.0
2014-Oct-22 22:32N 37°26' E 024°57'0 0.0
2014-Oct-22 21:23N 37°26' E 024°57'0 0.0
2014-Oct-22 20:09N 37°26' E 024°57'0 0.0
2014-Oct-22 19:29N 37°26' E 024°57'0 0.0
2014-Oct-22 18:22N 37°26' E 024°57'0 0.0
2014-Oct-22 17:31N 37°26' E 024°57'0 0.0
2014-Oct-22 16:33N 37°26' E 024°57'0 0.0
2014-Oct-22 15:24N 37°26' E 024°57'0 0.0
2014-Oct-22 14:32N 37°26' E 024°57'0 0.0
2014-Oct-22 13:29N 37°26' E 024°57'0 0.0
2014-Oct-22 12:29N 37°26' E 024°57'0 0.0
2014-Oct-22 11:29N 37°26' E 024°57'0 0.0
2014-Oct-22 10:31N 37°26' E 024°57'0 0.0
2014-Oct-22 09:31N 37°26' E 024°57'0 0.0
2014-Oct-22 08:29N 37°26' E 024°57'0 0.0
2014-Oct-22 07:31N 37°26' E 024°57'0 0.0
2014-Oct-22 06:28N 37°26' E 024°57'0 0.0
2014-Oct-22 05:22N 37°26' E 024°57'4 3.6
2014-Oct-22 04:07N 37°23' E 025°01'35 8.9
2014-Oct-22 00:12N 36°49' E 025°06'16 9.6
2014-Oct-21 22:31N 36°35' E 025°17'9 9.7
2014-Oct-21 21:33N 36°27' E 025°23'3 3.0
2014-Oct-21 20:32N 36°25' E 025°26'0 0.0
2014-Oct-21 19:32N 36°25' E 025°26'0 0.0
2014-Oct-21 18:32N 36°25' E 025°26'0 0.0
2014-Oct-21 17:33N 36°25' E 025°26'0 0.0
2014-Oct-21 16:32N 36°25' E 025°26'0 0.0
2014-Oct-21 15:33N 36°25' E 025°26'0 0.0
2014-Oct-21 14:33N 36°25' E 025°26'0 0.0
2014-Oct-21 13:32N 36°25' E 025°26'0 0.0
2014-Oct-21 12:33N 36°25' E 025°26'0 0.0
2014-Oct-21 11:33N 36°25' E 025°26'0 0.0
2014-Oct-21 10:32N 36°25' E 025°26'0 0.0
2014-Oct-21 09:32N 36°25' E 025°26'0 0.0
2014-Oct-21 08:32N 36°25' E 025°26'0 0.0
2014-Oct-21 07:32N 36°25' E 025°26'6 6.6
2014-Oct-21 06:33N 36°28' E 025°19'10 9.8
2014-Oct-21 05:33N 36°30' E 025°07'98 4.1
2014-Oct-20 05:19N 37°30' E 023°29'4 0.3
2014-Oct-19 13:25N 37°33' E 023°26'7 8.8
2014-Oct-19 12:33N 37°40' E 023°25'4 4.4
2014-Oct-19 11:33N 37°45' E 023°26'0 0.0
2014-Oct-19 10:34N 37°45' E 023°26'0 0.0
2014-Oct-19 09:34N 37°45' E 023°26'0 0.0
2014-Oct-19 08:33N 37°45' E 023°26'0 0.0
2014-Oct-19 07:33N 37°45' E 023°26'0 0.0
2014-Oct-19 06:33N 37°45' E 023°26'0 0.0
2014-Oct-19 05:34N 37°45' E 023°26'0 0.0
2014-Oct-19 04:33N 37°45' E 023°26'0 0.0
2014-Oct-19 03:33N 37°45' E 023°26'0 0.0
2014-Oct-19 02:34N 37°45' E 023°26'0 0.0
2014-Oct-19 01:34N 37°45' E 023°26'0 0.0
2014-Oct-19 00:34N 37°45' E 023°26'0 0.0
2014-Oct-18 23:34N 37°45' E 023°26'0 0.0
2014-Oct-18 22:34N 37°45' E 023°26'0 0.0
2014-Oct-18 21:34N 37°45' E 023°26'0 0.0
2014-Oct-18 20:33N 37°45' E 023°26'0 0.0
2014-Oct-18 19:34N 37°45' E 023°26'0 0.0
2014-Oct-18 18:33N 37°45' E 023°26'0 0.0
2014-Oct-18 17:33N 37°45' E 023°26'0 0.0
2014-Oct-18 16:33N 37°45' E 023°26'0 0.0
2014-Oct-18 15:33N 37°45' E 023°26'5 4.7
2014-Oct-18 14:34N 37°48' E 023°29'9 8.9
2014-Oct-18 13:34N 37°54' E 023°38'2 2.0
2014-Oct-18 12:34N 37°56' E 023°39'0 0.0
2014-Oct-18 11:34N 37°56' E 023°39'0 0.0
2014-Oct-18 10:33N 37°56' E 023°39'0 0.0
2014-Oct-18 09:33N 37°56' E 023°39'0 0.0
2014-Oct-18 08:34N 37°56' E 023°39'0 0.0
2014-Oct-18 07:34N 37°56' E 023°39'0 0.0
2014-Oct-18 06:33N 37°56' E 023°39'0 0.0
2014-Oct-18 05:34N 37°56' E 023°39'0 0.0
2014-Oct-18 04:34N 37°56' E 023°39'0 0.0
2014-Oct-18 03:34N 37°56' E 023°39'0 0.0
2014-Oct-18 02:34N 37°56' E 023°39'0 0.0
2014-Oct-18 01:34N 37°56' E 023°39'0 0.0
2014-Oct-18 00:33N 37°56' E 023°39'0 0.0
2014-Oct-17 23:34N 37°56' E 023°39'0 0.0
2014-Oct-17 22:34N 37°56' E 023°39'0 0.0
2014-Oct-17 21:34N 37°56' E 023°39'0 0.0
2014-Oct-17 20:34N 37°56' E 023°39'0 0.0
2014-Oct-17 19:34N 37°56' E 023°39'0 0.0
2014-Oct-17 18:34N 37°56' E 023°39'0 0.0
2014-Oct-17 17:34N 37°56' E 023°39'0 0.0
2014-Oct-17 16:34N 37°56' E 023°39'0 0.0
2014-Oct-17 15:33N 37°56' E 023°39'3 2.6
2014-Oct-17 14:33N 37°54' E 023°40'9 9.2
2014-Oct-17 13:33N 37°45' E 023°45'60 5.8
2014-Oct-17 03:11N 37°27' E 024°57'0 0.0
2014-Oct-17 01:30N 37°27' E 024°57'0 0.0
2014-Oct-17 00:30N 37°27' E 024°57'0 0.0
2014-Oct-16 23:30N 37°27' E 024°57'0 0.0
2014-Oct-16 22:28N 37°27' E 024°57'0 0.0
2014-Oct-16 21:18N 37°27' E 024°57'0 0.0
2014-Oct-16 20:29N 37°27' E 024°57'0 0.0
2014-Oct-16 19:29N 37°27' E 024°57'0 0.0
2014-Oct-16 18:29N 37°27' E 024°57'0 0.0
2014-Oct-16 17:33N 37°27' E 024°57'0 0.0
2014-Oct-16 16:33N 37°27' E 024°57'0 0.0
2014-Oct-16 15:29N 37°27' E 024°57'0 0.0
2014-Oct-16 14:30N 37°27' E 024°57'0 0.0
2014-Oct-16 13:21N 37°27' E 024°57'0 0.0
2014-Oct-16 12:28N 37°27' E 024°57'0 0.0
2014-Oct-16 11:24N 37°27' E 024°57'0 0.0
2014-Oct-16 10:28N 37°27' E 024°57'0 0.0
2014-Oct-16 09:23N 37°27' E 024°57'2 1.5
2014-Oct-16 08:14N 37°26' E 024°59'0 0.0
2014-Oct-16 07:29N 37°26' E 024°59'0 0.3
2014-Oct-16 06:30N 37°26' E 024°59'9 9.5
2014-Oct-16 05:33N 37°27' E 025°10'7 6.5
2014-Oct-16 04:24N 37°28' E 025°20'0 0.0
2014-Oct-16 03:33N 37°28' E 025°20'0 0.0
2014-Oct-16 02:20N 37°28' E 025°20'0 0.0
2014-Oct-16 01:25N 37°28' E 025°20'0 0.0
2014-Oct-16 00:33N 37°28' E 025°20'0 0.0
2014-Oct-15 23:29N 37°28' E 025°20'0 0.0
2014-Oct-15 22:27N 37°28' E 025°20'0 0.0
2014-Oct-15 21:16N 37°28' E 025°20'0 0.0
2014-Oct-15 20:31N 37°28' E 025°20'0 0.0
2014-Oct-15 19:32N 37°28' E 025°20'0 0.0
2014-Oct-15 18:31N 37°28' E 025°20'0 0.0
2014-Oct-15 17:33N 37°28' E 025°20'0 0.0
2014-Oct-15 16:33N 37°28' E 025°20'0 0.0
2014-Oct-15 15:24N 37°28' E 025°20'0 0.0
2014-Oct-15 14:28N 37°28' E 025°20'0 0.0
2014-Oct-15 13:31N 37°28' E 025°20'0 0.0
2014-Oct-15 12:32N 37°28' E 025°20'0 0.0
2014-Oct-15 11:32N 37°28' E 025°20'0 0.0
2014-Oct-15 10:26N 37°28' E 025°20'0 0.0
2014-Oct-15 09:31N 37°28' E 025°20'0 0.0
2014-Oct-15 08:31N 37°28' E 025°20'0 0.0
2014-Oct-15 07:31N 37°28' E 025°20'0 0.0
2014-Oct-15 06:19N 37°28' E 025°20'3 4.2
2014-Oct-15 05:33N 37°25' E 025°17'10 9.5
2014-Oct-15 04:29N 37°16' E 025°13'11 7.8
2014-Oct-15 03:05N 37°05' E 025°09'0 0.0
2014-Oct-15 02:29N 37°05' E 025°09'0 0.0
2014-Oct-14 21:13N 37°05' E 025°09'0 0.0
2014-Oct-14 19:20N 37°05' E 025°09'0 0.0
2014-Oct-14 18:33N 37°05' E 025°09'0 0.0
2014-Oct-14 15:23N 37°05' E 025°09'0 0.0
2014-Oct-14 13:23N 37°05' E 025°09'0 0.0
2014-Oct-14 12:31N 37°05' E 025°09'0 0.0
2014-Oct-14 11:19N 37°05' E 025°09'0 0.0
2014-Oct-14 10:21N 37°05' E 025°09'  

Dump ship's entire track history